DELTA 1 DEB, 21330

Orbit data source: Space-Track

DELTA 1 DEB, 21330 is space debris in SSO originally from a launch on Thu, 12 Jun 1975 UTC launched from the Air Force Western Test Range (AFWTR). Debris objects in space refer to the collection of defunct objects orbiting the Earth. Examples of debris include non-operational satellites, rocket bodies, and fragments generated from explosions, collisions, or faulty payload assembly.

Loading next visibility...
Identifier
21330, 1975-052AY
Orbit
SSO
Country
Flag of USUS
Related business
Manufacturer
Unknown
Mission
Spacecraft
Bus & Motor
Unknown
Mass
Unknown
Launch date (UTC)
1975-06-12 (51 years ago)
Launch vehicle
Unknown
Launch site
Air Force Western Test Range (AFWTR)
Object type
Payload
Rocket body
Debris
Shape & HBR
Unknown shape, 0.1 m
Radar Cross Section
Medium (>0.1 m² and <1 m²)

Expand to show TLE details & history
Last TLE update: 9 hours ago

TLE from 9 hours ago
0 DELTA 1 DEB
1 21330U 75052AY  25351.31672190  .00000013  00000-0  85738-4 0  9992
2 21330  99.9853 241.5441 0306664  48.3284  69.5567 13.33845665681039
Epoch: 2025-12-17T07:36Z
TLE epoch observation values (Epoch: 2025-12-17T07:36:04.772Z)
Latitude
57.4729°
Longitude
-122.72284°
Altitude
1,067.684 km
Speed
7.36 km/s
True Right ascension
05h 09m 56s
True Declination
57° 19' 24"
Sunlit
Object was in full shadow at epoch
Visualization orbit readout
Latitude
Unknown
Longitude
Unknown
Altitude
Unknown
Speed
Unknown
Apparent Right ascension
Unknown
Apparent Declination
Unknown
Sunlit
N/A
Visualization observer readout
Local Sidereal Time
14:57:12
Azimuth
Unknown
Elevation
Unknown
Doppler factor
Unknown
Orbital elements
Apogee altitude
1,359.863 km
Perigee altitude
899.391 km
Semi-major axis
7,507.764 km
Eccentricity
0.03067
Inclination
99.9853°
RAAN
241.5441°
Arg. of periapsis
48.3284°
True anomaly
72.89226°
Mean anomaly
69.5567°
Eccentric anomaly
71.22021°
Mean motion
3.33639 °/min
Orbital period
107.9 mins
BSTAR
0.000085738
Loading maneuver chart data...
Computing Atmospheric mass density...
Loading historical data...
Loading historical data...
Loading historical data...
Loading historical data...
Loading historical data...
Loading historical data...
Loading historical data...

Documentation

Showing up to 5 results
|